Wind_Speed
23 23 23 23 22 22 22 21 21 22 22 22 22 23 22 21 21 21 21 21 21 21 20 20 19 19 18 18 18 18 19 19 19 19 19 18 18 18
25 25 24 24 24 24 23 24 24 24 24 23 24 23 24 24 23 23 23 23 22 22 21 21 21 20 20 20 20 20 20 20 20 20 19 19 19 19
27 26 25 26 25 25 26 26 26 26 26 25 25 25 25 25 25 25 25 24 24 24 24 23 23 22 21 21 21 21 21 21 21 21 20 20 20 20
29 28 28 27 27 27 27 28 28 28 27 27 27 26 26 26 25 25 25 25 25 25 25 26 25 24 23 23 23 23 22 22 21 21 21 21 21 21
30 30 30 29 29 29 29 29 29 28 28 28 27 27 27 26 26 26 26 26 26 26 26 27 27 26 25 25 25 24 24 23 23 23 23 23 23 23
31 32 32 32 31 31 31 30 29 29 28 28 27 27 27 27 27 27 27 27 27 27 27 27 28 28 27 27 27 26 25 25 25 24 24 24 24 24
33 33 33 33 32 32 31 30 29 29 29 29 28 28 27 27 28 28 28 28 28 28 28 28 28 29 28 28 28 28 27 27 26 26 26 25 25 25
34 34 35 35 34 33 31 31 30 30 30 30 30 29 29 29 29 30 30 29 29 29 28 29 29 29 29 29 29 29 29 29 28 27 27 26 26 26
34 35 35 35 34 33 33 32 31 31 32 31 31 31 31 31 31 31 31 30 30 29 29 29 30 30 31 31 30 29 29 29 28 28 28 28 28 28
34 34 35 35 34 34 34 33 33 33 33 33 32 32 33 33 33 32 32 31 31 30 30 29 30 30 30 31 31 29 29 29 29 29 29 29 28 28
34 34 34 35 35 34 34 34 34 34 33 33 33 34 34 34 34 34 33 33 32 30 30 30 30 30 30 31 31 31 31 31 30 30 29 29 28 28
34 34 34 35 35 35 34 34 34 35 35 35 34 34 35 35 35 35 34 34 33 32 31 31 31 31 30 31 32 33 32 32 32 31 30 30 30 29
35 35 34 35 35 34 35 35 35 35 35 35 35 35 35 36 36 36 36 35 34 33 32 32 31 32 32 31 31 32 32 32 32 32 32 31 30 30
35 35 35 35 35 35 35 35 35 35 35 36 36 36 36 36 36 36 36 36 36 35 34 33 32 32 32 32 31 32 33 33 33 33 32 32 32 31
35 35 35 35 35 35 35 35 35 36 36 37 37 37 37 36 36 36 36 37 37 36 35 34 33 33 33 32 32 32 33 33 33 33 33 33 32 32
35 35 35 35 35 35 35 36 35 35 35 36 36 37 37 37 36 36 36 37 37 36 36 35 34 34 34 33 33 32 33 33 33 33 33 33 32 32
36 36 35 35 34 34 34 35 35 35 35 35 35 35 36 35 35 35 36 36 37 36 36 36 35 35 34 34 34 33 33 33 34 34 34 33 33 32
35 34 34 34 34 34 34 33 33 33 34 34 34 34 34 34 34 35 36 36 37 37 37 36 35 35 34 34 34 33 33 33 34 34 34 33 32 32
34 34 34 34 34 34 34 33 33 33 33 33 33 34 34 35 35 36 37 37 37 37 37 37 36 36 35 34 33 33 33 33 33 33 33 32 31 30
34 34 34 34 34 34 34 34 33 33 34 34 34 34 34 35 35 36 37 36 37 37 37 37 37 36 35 34 33 33 33 34 33 33 33 32 31 31
34 34 34 34 34 34 34 34 34 34 34 34 34 34 34 35 35 36 36 36 36 36 36 36 37 36 34 34 34 33 33 33 33 33 33 33 33 31
35 35 35 35 35 34 34 33 33 33 33 33 32 33 33 34 34 34 35 35 36 35 35 35 35 35 34 33 33 32 32 33 33 33 33 33 33 32
36 36 35 35 35 34 33 32 32 33 33 32 32 32 32 32 32 33 33 34 35 35 34 34 34 34 33 32 32 32 32 32 32 32 32 32 31 31
Wind_Direction
282 282 283 283 284 284 284 284 284 282 280 279 277 275 274 274 273 271 271 270 269 266 266 266 268 267 267 266 264 263 264 265 265 264 262 264 264 263
280 280 281 282 283 283 284 283 283 282 281 278 276 276 274 273 272 271 271 270 269 268 265 264 264 265 265 265 265 265 266 265 265 264 263 262 262 263
280 279 279 280 282 282 283 283 282 281 280 279 277 276 274 273 271 270 269 268 267 266 264 264 265 265 264 263 264 266 266 266 265 263 262 262 262 262
280 279 278 279 280 280 282 282 281 280 280 278 276 275 272 271 269 268 268 267 266 266 264 264 265 266 262 264 264 264 264 265 266 264 262 261 261 261
280 279 278 279 280 280 281 281 280 279 277 276 274 273 272 270 269 268 268 268 267 267 266 264 264 265 263 264 263 263 263 262 263 264 264 261 260 260
279 278 278 278 279 280 280 279 278 277 276 274 273 272 271 269 268 268 268 269 269 269 269 267 265 262 262 262 262 263 263 262 262 262 264 262 261 259
278 278 278 279 280 280 280 278 276 275 274 274 273 272 271 269 268 267 268 269 271 270 269 269 266 263 262 260 261 261 261 262 262 263 264 263 262 260
278 277 279 279 278 278 278 276 275 274 273 272 272 272 271 270 269 269 269 268 269 268 267 267 266 264 263 263 261 260 262 262 261 262 262 261 261 261
279 278 278 277 276 276 275 274 274 274 273 272 271 270 271 270 269 269 269 267 267 268 267 266 266 265 264 264 262 262 261 261 260 262 262 261 260 260
280 279 278 278 278 276 275 273 273 273 273 272 270 270 270 270 270 268 267 266 266 269 269 266 266 266 265 264 263 263 264 263 261 262 263 261 260 259
281 281 280 279 278 275 273 273 273 273 273 272 270 270 269 269 268 268 266 265 265 267 268 267 265 264 265 265 263 263 264 263 262 261 262 259 258 259
282 281 281 280 278 276 274 273 272 272 273 272 271 270 269 269 268 267 266 265 263 264 265 266 265 265 265 265 264 263 263 262 261 260 260 259 258 258
283 282 281 280 278 277 275 273 273 272 272 271 270 269 269 268 267 265 264 263 263 263 263 264 264 265 265 265 263 262 262 260 259 258 259 259 258 258
282 281 280 280 279 278 276 275 273 272 272 271 271 270 269 267 266 265 263 261 261 262 262 263 262 263 264 264 263 261 260 259 258 257 256 257 259 258
283 282 281 280 279 278 276 275 275 274 272 271 270 270 269 267 266 264 263 261 259 260 262 263 263 262 263 264 264 261 260 259 258 256 254 256 259 259
283 282 282 282 280 279 277 275 275 275 273 271 269 269 268 266 265 264 263 261 259 260 261 262 262 261 262 262 262 261 259 257 256 255 254 255 257 259
284 283 283 282 281 281 279 277 275 274 274 272 270 269 268 267 265 264 264 263 260 260 261 262 261 261 260 260 261 260 258 256 254 254 254 255 256 258
283 284 283 282 282 282 280 279 277 275 273 272 271 271 269 268 267 266 264 263 262 261 262 261 261 260 260 260 260 260 259 256 254 253 253 254 255 257
283 283 283 282 281 280 279 278 277 275 273 273 271 271 271 270 268 266 265 265 265 264 262 260 260 260 260 260 259 259 259 257 254 251 251 252 254 255
283 282 282 282 281 280 278 277 276 276 274 273 272 272 271 269 268 267 266 265 265 264 262 260 260 260 259 258 257 258 257 255 252 250 249 250 252 254
282 282 283 283 282 281 279 277 276 276 275 274 273 272 270 269 268 267 266 264 264 263 261 259 259 259 259 257 256 256 255 252 249 247 246 248 249 251
283 282 283 282 281 280 278 276 275 275 274 274 273 272 271 270 268 267 265 264 263 262 259 257 256 256 256 256 254 254 253 251 249 247 246 248 248 250
283 283 284 283 281 280 278 275 274 275 275 273 273 273 272 271 269 267 266 264 263 261 258 257 256 255 254 254 252 251 251 250 249 247 246 247 248 249
Height
5792 5791 5790 5789 5788 5786 5785 5784 5784 5783 5781 5780 5779 5778 5778 5778 5778 5778 5778 5778 5779 5780 5781 5781 5782 5782 5782 5783 5783 5784 5785 5785 5786 5786 5787 5787 5788 5789
5785 5784 5783 5782 5781 5780 5779 5777 5776 5775 5774 5773 5772 5771 5771 5771 5771 5771 5771 5771 5772 5773 5774 5774 5775 5776 5776 5777 5778 5778 5779 5779 5780 5781 5781 5782 5783 5783
5777 5777 5776 5775 5774 5772 5771 5770 5768 5767 5766 5765 5764 5764 5763 5763 5763 5764 5764 5765 5765 5766 5767 5767 5768 5769 5770 5771 5772 5772 5773 5773 5774 5774 5775 5776 5777 5778
5769 5768 5768 5767 5766 5765 5763 5762 5761 5759 5758 5758 5757 5756 5756 5755 5756 5756 5756 5757 5757 5758 5759 5760 5761 5761 5763 5764 5764 5765 5766 5767 5767 5768 5769 5770 5771 5771
5760 5760 5759 5758 5758 5756 5755 5754 5752 5751 5750 5749 5749 5748 5748 5748 5748 5748 5748 5749 5749 5750 5751 5752 5753 5754 5755 5756 5757 5758 5759 5760 5761 5762 5762 5763 5764 5765
5751 5750 5749 5749 5748 5747 5746 5745 5744 5743 5742 5741 5741 5740 5740 5740 5740 5740 5741 5741 5741 5742 5742 5743 5744 5746 5747 5748 5749 5750 5751 5752 5753 5754 5755 5756 5757 5758
5741 5740 5739 5739 5738 5737 5736 5735 5734 5734 5733 5733 5732 5732 5732 5732 5732 5732 5732 5733 5733 5733 5734 5735 5735 5737 5738 5739 5741 5742 5743 5745 5746 5747 5748 5749 5749 5751
5731 5730 5729 5728 5727 5726 5726 5725 5725 5724 5724 5724 5723 5723 5723 5723 5723 5723 5724 5724 5725 5725 5725 5726 5726 5728 5729 5731 5732 5733 5735 5736 5737 5739 5740 5741 5742 5743
5720 5719 5718 5717 5716 5716 5715 5715 5714 5714 5714 5714 5714 5714 5714 5714 5714 5714 5714 5715 5716 5716 5716 5717 5718 5719 5720 5721 5722 5724 5726 5727 5729 5730 5731 5732 5734 5735
5709 5708 5707 5706 5706 5705 5705 5704 5704 5704 5704 5703 5703 5703 5703 5703 5703 5704 5704 5705 5706 5706 5707 5708 5709 5709 5710 5712 5713 5714 5716 5718 5719 5721 5722 5724 5725 5726
5698 5697 5696 5695 5695 5694 5694 5693 5693 5693 5692 5692 5692 5692 5692 5692 5692 5693 5694 5695 5696 5697 5697 5698 5699 5700 5701 5702 5703 5705 5706 5708 5710 5712 5713 5715 5716 5717
5687 5686 5685 5684 5683 5682 5682 5682 5682 5681 5681 5681 5681 5681 5681 5681 5681 5682 5683 5684 5685 5687 5688 5689 5690 5690 5692 5693 5694 5695 5697 5698 5700 5702 5703 5705 5707 5708
5676 5675 5674 5673 5672 5671 5670 5670 5670 5669 5669 5669 5669 5669 5669 5670 5670 5671 5672 5673 5674 5676 5678 5678 5679 5680 5681 5683 5684 5685 5686 5688 5690 5692 5694 5696 5697 5700
5664 5663 5662 5661 5660 5659 5659 5658 5657 5657 5657 5657 5657 5657 5657 5658 5658 5659 5660 5661 5663 5664 5666 5667 5668 5670 5671 5672 5674 5675 5676 5678 5680 5682 5683 5685 5688 5690
5652 5651 5650 5649 5648 5647 5647 5646 5645 5645 5644 5645 5645 5645 5645 5646 5646 5647 5648 5649 5651 5653 5654 5655 5657 5658 5660 5661 5663 5664 5665 5667 5669 5671 5673 5675 5678 5680
5641 5639 5638 5637 5635 5635 5634 5633 5633 5632 5632 5632 5632 5632 5633 5633 5634 5635 5636 5637 5639 5641 5642 5643 5645 5647 5648 5649 5650 5652 5654 5656 5658 5660 5663 5665 5667 5670
5629 5628 5627 5625 5624 5623 5622 5621 5621 5620 5620 5620 5620 5620 5621 5621 5622 5623 5624 5625 5627 5629 5631 5632 5633 5634 5636 5637 5639 5641 5642 5644 5647 5649 5652 5654 5657 5659
5618 5617 5615 5614 5613 5612 5611 5610 5609 5609 5609 5609 5608 5609 5609 5610 5610 5611 5612 5614 5615 5617 5619 5620 5621 5623 5625 5626 5628 5629 5631 5633 5636 5638 5641 5644 5647 5649
5607 5606 5604 5603 5602 5601 5600 5600 5599 5599 5598 5598 5598 5597 5597 5598 5599 5600 5601 5602 5603 5604 5606 5608 5609 5611 5613 5615 5617 5618 5620 5622 5625 5627 5630 5634 5637 5639
5596 5595 5593 5592 5591 5590 5589 5589 5588 5588 5587 5587 5586 5586 5586 5586 5587 5588 5589 5590 5591 5592 5594 5596 5598 5599 5601 5604 5606 5608 5609 5611 5613 5617 5620 5623 5626 5628
5585 5584 5582 5581 5580 5578 5578 5577 5577 5576 5576 5575 5575 5575 5575 5575 5575 5576 5576 5577 5579 5580 5582 5584 5586 5587 5589 5591 5594 5596 5598 5600 5602 5605 5609 5612 5615 5617
5574 5573 5571 5570 5568 5567 5566 5566 5565 5565 5564 5564 5564 5563 5563 5563 5563 5564 5565 5566 5567 5568 5570 5572 5574 5575 5577 5580 5582 5585 5588 5590 5592 5594 5598 5601 5604 5607
5562 5561 5560 5558 5557 5555 5555 5555 5554 5554 5553 5553 5553 5552 5552 5552 5552 5553 5553 5554 5555 5557 5558 5560 5563 5564 5566 5569 5571 5574 5577 5579 5581 5584 5587 5590 5594 5597